Date,TemperatureHighF,TemperatureAvgF,TemperatureLowF,DewpointHighF,DewpointAvgF,DewpointLowF,HumidityHigh,HumidityAvg,HumidityLow,PressureMaxIn,PressureMinIn,WindSpeedMaxMPH,WindSpeedAvgMPH,GustSpeedMaxMPH,PrecipitationSumIn
2012-7-1,92.5,90.5,85.1,75.6,74.3,71.6,67,59,49,29.89,29.81,2,0,2,0.10
2012-7-3,86.9,66.6,0.0,71.8,67.4,66.0,56,51,48,29.89,0.00,6,0,6,0.10
2012-7-4,97.2,88.4,0.0,72.4,70.0,62.7,76,56,43,29.92,0.00,7,1,7,0.00
2012-7-11,69.6,56.0,0.0,70.8,65.2,63.3,84,83,83,30.08,0.00,0,0,0,1.90
2012-7-14,89.2,18.8,0.0,75.0,66.1,63.5,86,70,58,30.14,0.00,5,0,5,2.06
2012-7-19,83.7,75.1,0.0,70.4,68.9,68.0,71,66,63,29.89,0.00,3,0,3,2.06
2012-7-20,93.4,81.2,74.7,75.4,71.0,68.1,82,73,54,29.91,29.82,5,0,5,0.10
2012-7-21,88.2,79.8,73.9,75.8,72.1,69.0,86,77,58,29.99,29.89,7,0,7,0.10
2012-7-22,87.3,79.6,73.0,76.3,72.7,68.6,86,80,69,30.14,30.08,1,0,1,0.47
2012-7-23,94.6,79.2,72.7,76.5,70.4,67.9,88,75,52,30.11,29.95,7,0,7,0.55
2012-7-24,92.7,81.2,72.5,78.2,69.6,67.1,88,68,59,29.97,29.77,5,0,5,0.00
2012-7-25,91.4,83.1,72.3,72.4,69.9,63.9,75,65,52,29.92,29.82,0,0,0,0.00
2012-7-26,99.5,85.6,74.3,76.4,72.1,67.4,82,66,47,29.88,29.73,3,0,3,0.00
2012-7-27,99.7,81.0,76.3,75.8,70.1,66.6,81,71,46,29.89,29.77,13,0,13,0.88
2012-7-28,97.2,83.2,72.7,76.5,71.8,63.4,86,70,49,29.97,29.83,14,0,14,0.67
2012-7-29,95.2,83.9,69.6,72.3,69.6,64.6,85,64,44,29.96,29.87,7,0,7,0.00
2012-7-30,91.0,81.4,72.3,73.8,69.7,65.4,83,68,55,29.98,29.90,5,0,5,0.04
2012-7-31,90.0,80.2,70.3,74.2,70.4,64.6,86,73,59,29.96,29.83,6,0,7,0.00
2012-8-1,94.8,80.5,71.8,74.9,69.3,65.3,83,70,51,29.88,29.77,10,0,11,0.00
2012-8-2,93.0,80.0,0.0,73.9,68.6,64.8,85,67,52,29.92,29.81,25,0,28,0.00
2012-8-3,93.4,83.5,69.4,73.9,70.0,63.0,82,65,49,30.03,29.89,11,1,11,0.00
2012-8-4,92.3,84.0,74.1,73.5,70.6,67.0,84,65,51,30.15,30.03,18,0,18,0.00
2012-8-5,88.9,77.4,73.9,75.2,69.3,67.2,85,76,60,30.18,30.05,5,0,5,0.00
2012-8-6,94.3,81.4,74.1,75.0,71.0,68.4,84,72,51,30.09,29.95,10,0,10,0.02
2012-8-7,83.5,76.6,73.6,74.7,70.9,68.4,86,83,74,30.01,29.92,2,0,2,0.39
2012-8-8,87.6,73.9,70.2,75.3,68.8,64.8,89,82,67,29.96,29.88,4,0,4,0.31
2012-8-9,88.9,79.5,67.5,74.8,70.9,63.5,88,75,63,29.96,29.81,0,0,0,0.00
2012-8-10,76.8,73.7,71.4,70.6,68.4,67.0,87,82,79,29.83,29.77,6,0,6,0.14
2012-8-11,82.2,74.8,73.0,74.4,70.5,67.6,89,86,75,29.89,29.80,4,0,4,1.39
2012-8-12,89.4,77.4,71.2,69.7,68.1,64.3,89,74,51,29.97,29.87,5,0,5,0.00
2012-8-13,90.7,77.5,66.0,71.0,66.2,60.4,84,70,50,30.00,29.89,2,0,2,0.00
2012-8-14,91.8,78.5,67.3,71.1,66.7,61.2,81,68,51,29.91,29.80,6,0,6,0.00
2012-8-15,89.1,79.6,71.8,72.4,68.7,64.9,82,69,58,29.89,29.82,3,0,3,0.00
2012-8-16,90.1,77.4,68.9,67.9,65.4,62.5,81,68,48,29.99,29.89,1,0,1,0.00
2012-8-17,91.2,80.3,66.7,71.5,67.4,60.2,82,66,52,29.94,29.77,3,0,3,0.00
2012-8-18,86.5,75.1,69.6,69.0,65.6,63.2,82,73,56,29.87,29.78,0,0,0,0.00
2012-8-19,73.4,70.5,69.3,67.2,65.8,63.0,87,85,71,29.87,29.80,9,0,9,1.37
2012-8-20,80.4,73.6,67.1,69.6,66.7,62.9,88,79,67,29.92,29.81,1,0,1,0.10
2012-8-21,81.7,72.9,67.6,70.8,66.2,63.0,86,80,66,30.02,29.92,0,0,0,0.00
2012-8-22,80.2,73.2,69.3,71.6,67.4,64.7,87,82,74,30.07,30.01,0,0,0,0.00
2012-8-23,85.1,73.8,68.5,68.8,65.6,64.2,87,76,56,30.10,30.04,0,0,0,0.00
2012-8-24,77.2,70.8,67.3,67.5,63.6,61.4,84,78,70,30.11,30.05,0,0,0,0.00
2012-8-25,70.3,66.0,63.1,63.2,60.4,57.7,86,82,76,30.08,30.04,9,0,9,0.35
2012-8-26,84.9,73.2,66.6,70.9,65.5,61.7,85,77,63,30.15,30.06,0,0,0,0.00
2012-8-27,88.9,77.3,69.4,74.2,69.3,64.1,86,77,62,30.11,29.96,1,0,1,0.00
2012-8-28,87.6,78.5,72.5,75.1,70.9,67.6,87,78,66,29.97,29.85,7,0,7,0.12
2012-8-29,87.6,74.9,71.6,71.8,67.7,64.9,87,78,58,29.96,29.87,0,0,0,0.00
2012-8-30,89.4,78.8,67.3,73.5,68.3,61.9,86,71,53,30.10,29.96,3,0,3,0.00
2012-8-31,93.7,80.3,71.4,76.3,71.0,65.8,86,74,56,30.16,30.01,0,0,0,0.00
2012-9-1,90.9,83.3,73.2,76.2,72.8,67.4,84,71,58,30.08,29.98,11,0,11,0.00
2012-9-2,89.8,82.6,72.3,76.8,72.3,66.3,83,71,62,30.01,29.87,10,0,10,0.80
2012-9-3,86.5,73.9,72.1,77.3,68.8,66.5,88,84,74,30.00,29.92,4,0,4,1.61
2012-9-4,88.0,78.2,72.3,74.1,70.6,68.6,89,79,61,29.98,29.87,0,0,0,0.04
2012-9-5,87.4,78.4,72.1,73.2,70.2,67.0,87,77,62,29.89,29.80,0,0,0,0.00
2012-9-6,86.5,76.6,72.7,75.2,70.1,67.9,87,81,69,29.89,29.84,0,0,0,0.24
2012-9-7,86.2,75.0,70.7,73.0,68.8,66.6,88,82,65,29.95,29.82,0,0,0,0.00
2012-9-8,87.8,76.8,68.5,75.6,69.7,63.8,89,79,64,29.81,29.63,14,0,14,0.16
2012-9-9,79.3,71.3,63.7,66.5,59.4,56.2,86,67,49,29.91,29.78,13,0,13,0.02
2012-9-10,77.5,66.8,57.4,57.9,54.4,49.9,78,65,48,30.11,29.93,0,0,0,0.00
2012-9-11,78.1,66.1,55.9,58.5,53.9,49.4,79,66,49,30.26,30.11,1,0,1,0.00
2012-9-12,79.3,66.3,55.0,59.7,54.6,48.6,81,67,49,30.32,30.23,0,0,0,0.00
2012-9-13,79.3,69.6,56.5,61.4,57.8,50.2,82,67,49,30.31,30.20,0,0,0,0.00
2012-9-14,80.8,72.9,63.7,67.2,63.2,57.9,85,72,62,30.23,30.10,0,0,0,0.00
2012-9-15,79.5,73.3,62.2,65.4,62.6,56.9,85,69,61,30.14,30.07,10,0,10,0.00
2012-9-16,64.8,62.3,60.4,58.8,56.8,54.2,84,82,74,30.16,30.04,4,0,4,0.45
2012-9-17,75.9,71.0,61.5,68.9,65.6,56.6,87,83,79,30.08,29.92,0,0,0,0.00
2012-9-18,76.3,71.8,68.5,71.9,67.7,64.6,90,87,83,29.91,29.66,20,1,20,2.32
2012-9-19,71.2,66.0,60.4,65.2,61.5,53.2,89,85,64,30.09,29.79,7,0,7,0.08
2012-9-25,75.9,61.8,48.7,58.2,50.8,41.8,81,68,51,30.19,30.09,4,0,4,0.00
2012-9-26,81.7,67.6,55.6,64.1,57.3,49.2,82,70,55,30.17,30.09,4,0,4,0.00
2012-9-27,83.7,70.2,58.8,65.1,58.9,53.0,83,69,47,30.14,30.03,0,0,0,0.00
2012-9-28,82.8,69.8,59.9,67.5,60.7,53.7,84,74,59,30.05,29.93,0,0,0,0.02
2012-9-29,68.5,64.0,60.1,62.2,59.2,55.9,86,84,80,29.96,29.87,0,0,0,0.61
2012-9-30,70.9,62.9,56.3,60.0,56.6,52.2,87,80,64,29.89,29.81,0,0,0,0.00
2012-10-1,63.0,61.3,60.3,58.5,56.8,54.9,87,85,82,29.89,29.83,0,0,0,0.04
2012-10-2,84.4,71.9,62.8,75.2,67.3,58.9,91,86,71,29.92,29.78,3,0,3,0.14
2012-10-3,83.8,74.8,72.7,73.1,69.9,68.9,89,83,67,30.06,29.93,0,0,0,0.00
2012-10-4,69.8,68.9,68.0,64.1,63.3,62.6,83,82,82,30.15,30.11,0,0,0,0.00
2012-10-5,78.6,67.8,58.8,61.6,58.4,53.7,84,73,53,30.13,29.97,0,0,0,0.00
2012-10-6,79.9,68.5,58.6,64.9,58.7,53.0,85,72,57,29.97,29.83,0,0,0,0.00
2012-10-7,66.2,52.8,49.3,53.7,48.3,45.0,86,85,64,30.10,29.93,9,0,9,0.98
2012-10-8,51.4,49.5,47.1,47.1,45.0,42.6,87,85,78,30.18,30.09,0,0,0,0.22
2012-10-9,57.6,50.7,47.1,52.2,46.6,43.4,88,85,82,30.11,30.03,8,0,8,0.00
2012-10-10,70.0,56.9,0.0,56.2,51.6,48.1,85,78,58,30.06,29.92,3,0,3,0.00
2012-10-11,65.1,53.2,47.7,46.9,41.7,38.4,73,64,50,30.26,30.08,4,0,4,0.00
2012-10-12,49.8,46.1,45.0,41.3,39.4,38.5,78,77,72,30.18,30.12,0,0,0,0.00
2012-10-13,64.2,56.9,44.4,47.4,44.4,35.5,73,63,52,30.42,30.29,2,0,2,0.00
2012-10-14,73.6,63.7,45.3,59.6,53.9,38.2,82,71,60,30.28,30.00,7,0,7,0.00
2012-10-15,68.7,63.9,57.6,64.3,58.9,49.0,88,84,73,29.97,29.66,4,0,4,0.27
2012-10-16,67.1,53.1,47.5,48.3,43.8,40.6,78,71,50,29.91,29.81,2,0,2,0.00
2012-10-17,70.0,56.2,48.2,52.3,45.7,42.0,82,69,49,29.96,29.86,0,0,0,0.00
2012-10-18,74.1,62.4,47.5,63.0,55.5,40.8,84,78,68,29.90,29.73,2,0,2,0.06
2012-10-19,75.0,65.0,54.1,63.5,57.2,39.5,87,78,38,29.74,29.62,5,0,5,0.14
2012-10-20,69.1,61.0,46.0,48.5,45.9,38.6,77,59,46,29.88,29.70,12,0,12,0.00
2012-10-21,65.1,58.4,46.6,45.0,42.8,37.3,71,57,47,30.09,29.91,9,0,9,0.00
2012-10-22,71.4,55.5,43.2,50.2,43.8,36.4,79,66,47,30.18,30.08,1,0,1,0.00
2012-10-23,77.5,62.0,47.5,57.6,49.8,41.0,80,65,47,30.14,30.05,2,0,2,0.00
2012-10-24,79.3,63.3,50.9,58.7,51.6,43.9,80,67,47,30.13,30.03,4,0,4,0.00
2012-10-25,77.7,62.1,52.3,60.3,52.6,45.7,81,71,55,30.12,30.05,0,0,0,0.00
2012-10-27,0.0,0.0,0.0,54.8,54.8,54.8,83,77,72,0.00,0.00,5,1,9,0.02
2012-10-28,0.0,0.0,0.0,54.8,54.8,54.8,71,71,71,29.61,29.61,0,0,0,0.00
2012-10-29,0.0,0.0,0.0,54.8,54.8,54.8,85,85,85,29.48,29.48,0,0,0,0.00
2012-10-30,42.4,1.0,0.0,54.8,54.8,54.8,69,62,58,29.26,29.26,6,1,14,0.53
2012-11-10,0.0,0.0,0.0,54.8,54.8,54.8,0,0,100,30.28,0.00,0,0,0,0.55
2012-12-26,39.9,39.9,39.9,35.5,35.5,35.5,84,84,84,29.49,29.47,0,0,0,1.92